Stations météo

Publicité
Chambery/Aix-Les-Bains, France (7491): Température de l'air & dewpoint: 13.03.2019 16:00:00 - 19.03.2019 16:00:00 (CET)Chambery/Aix-Les-Bains, France (7491): Température de l'air 5cm: 13.03.2019 16:00:00 - 19.03.2019 16:00:00 (CET)Chambery/Aix-Les-Bains, France (7491): Température de l'air -20cm & Température de l'air -100cm: 13.03.2019 16:00:00 - 19.03.2019 16:00:00 (CET)Chambery/Aix-Les-Bains, France (7491): Vitesse du vent & gusts: 13.03.2019 16:00:00 - 19.03.2019 16:00:00 (CET)Chambery/Aix-Les-Bains, France (7491): Direction du vent: 13.03.2019 16:00:00 - 19.03.2019 16:00:00 (CET)Chambery/Aix-Les-Bains, France (7491): reduced air pressure: 13.03.2019 16:00:00 - 19.03.2019 16:00:00 (CET)Chambery/Aix-Les-Bains, France (7491): visibility: 13.03.2019 16:00:00 - 19.03.2019 16:00:00 (CET)Chambery/Aix-Les-Bains, France (7491): Ensoleillement: 13.03.2019 16:00:00 - 19.03.2019 16:00:00 (CET)Chambery/Aix-Les-Bains, France (7491): Quantités de précipitations: 13.03.2019 16:00:00 - 19.03.2019 16:00:00 (CET)
Date & Time tt [°C] td [°C] tt 5cm [°C] tt -20cm [°C] tt -100cm [°C] ff [km/h] ff [knt] fx [km/h] fx [knt] dd ppp [hPa] vv [km] sd [min] rr [mm]
19.03.2019 16:00:00 12,3 -2,0 17,3 7,2 7,8 25 13 38 21 NNW 1024,6 17 60 0,0
19.03.2019 15:00:00 12,0 -2,3 16,6 7,2 7,8 23 12 35 19 N 1024,8 12 60 0,0
19.03.2019 14:00:00 12,0 -1,9 14,8 7,1 7,8 22 12 35 19 NNW 1024,9 16 60 0,0
19.03.2019 13:00:00 11,5 0,0 12,1 7,1 7,8 24 13 35 19 NNW 1025,2 12 47 0,0
19.03.2019 12:00:00 10,5 1,3 15,2 7,1 7,8 16 9 31 17 N 1025,6 15 60 0,0
19.03.2019 11:00:00 8,7 1,8 12,9 7,1 7,8 20 11 27 15 N 1025,8 13 60 0,0
19.03.2019 10:00:00 7,4 2,3 9,5 7,2 7,8 17 9 34 18 N 1026,1 16 60 0,0
19.03.2019 09:00:00 5,7 2,5 6,0 7,2 7,7 16 9 26 14 N 1025,9 17 60 0,0
19.03.2019 08:00:00 0,6 0,3 -3,2 7,4 7,8 3 2 8 4 S 1026,4 15 14 0,0
19.03.2019 07:00:00 -0,7 -1,3 -3,6 7,4 7,8 3 2 7 4 S 1025,7 14 0 0,0
19.03.2019 06:00:00 -0,5 -0,9 -3,8 7,5 7,8 5 3 11 6 S 1025,4 15 0 0,0
19.03.2019 05:00:00 -0,4 -1,1 -3,0 7,5 7,8 5 3 8 4 S 1025,0 11 0 0,0
19.03.2019 04:00:00 0,4 -0,3 -2,0 7,6 7,7 4 2 9 5 SSW 1024,6 10 0 0,0
19.03.2019 03:00:00 1,3 0,1 -0,7 7,7 7,7 4 2 5 3 S 1024,3 14 0 0,0
19.03.2019 02:00:00 2,7 0,8 1,1 7,7 7,7 5 3 12 7 ENE 1024,4 18 0 0,0
19.03.2019 01:00:00 2,6 1,0 0,1 7,8 7,7 5 3 10 5 N 1024,5 18 0 0,0
19.03.2019 00:00:00 1,7 0,4 -0,5 7,8 7,7 3 2 10 6 W 1024,7 18 0 0,0
18.03.2019 23:00:00 2,2 0,4 -0,1 7,9 7,7 2 1 10 6 NNE 1025,1 18 0 0,0
18.03.2019 22:00:00 2,6 0,3 0,5 7,9 7,7 6 3 10 5 S 1025,1 19 0 0,0
18.03.2019 21:00:00 4,0 0,1 1,5 7,9 7,7 6 4 21 11 WSW 1024,8 20 0 0,0
18.03.2019 20:00:00 5,6 1,3 3,3 7,9 7,7 10 6 20 11 N 1024,2 60 0 0,0
18.03.2019 19:00:00 6,9 -0,6 4,4 7,9 7,7 6 3 24 13 N 1023,7 60 0 0,0
18.03.2019 18:00:00 8,4 0,1 7,2 7,9 7,7 11 6 21 11 NNW 1023,0 60 0 0,0
18.03.2019 17:00:00 8,5 0,5 8,9 7,8 7,7 9 5 13 7 NNW 1022,6 20 5 0,0
18.03.2019 16:00:00 9,7 0,6 10,4 7,8 7,7 11 6 22 12 NNE 1022,5 19 4 0,0
18.03.2019 15:00:00 9,7 0,0 10,8 7,7 7,7 13 7 22 12 N 1022,7 19 0 0,0
18.03.2019 14:00:00 9,5 -0,4 11,0 7,7 7,7 6 4 17 9 NNE 1022,8 20 1 0,0
18.03.2019 13:00:00 9,0 0,2 9,8 7,7 7,7 11 6 19 11 NNE 1023,2 19 15 0,0
18.03.2019 12:00:00 8,0 0,0 9,5 7,7 7,7 11 6 27 15 NNE 1023,8 20 14 0,0
18.03.2019 11:00:00 8,8 2,8 7,6 7,7 7,7 18 10 24 13 N 1023,7 14 53 0,0
18.03.2019 10:00:00 7,5 2,8 8,6 7,7 7,7 13 7 25 13 N 1023,6 19 55 0,0
18.03.2019 09:00:00 6,1 3,3 4,9 7,7 7,7 13 7 26 14 N 1023,1 19 21 0,0
18.03.2019 08:00:00 4,7 3,8 3,9 7,7 7,7 3 1 9 5 ENE 1022,8 7 3 0,0
18.03.2019 07:00:00 4,1 3,7 3,5 7,8 7,7 6 4 10 5 S 1022,2 6 0 0,0
18.03.2019 06:00:00 4,2 3,6 3,5 7,8 7,7 6 4 13 7 W 1021,8 5 0 0,2
18.03.2019 05:00:00 3,8 3,2 1,5 7,9 7,7 9 5 13 7 SSE 1021,3 13 0 0,0
18.03.2019 04:00:00 3,6 3,0 2,1 7,9 7,6 4 2 10 5 N 1020,8 15 0 0,0
18.03.2019 03:00:00 4,3 3,3 3,5 7,9 7,7 4 2 9 5 S 1020,9 19 0 0,0
18.03.2019 02:00:00 4,7 3,2 3,8 7,9 7,6 5 3 13 7 SSW 1021,1 60 0 0,0
18.03.2019 01:00:00 5,1 2,9 4,1 7,9 7,6 9 5 20 11 ENE 1021,2 3,7 0 1,8
18.03.2019 00:00:00 5,9 4,1 5,3 8,0 7,6 14 7 23 12 N 1020,7 20 0 0,0
17.03.2019 23:00:00 5,4 4,0 3,9 8,0 7,7 10 5 18 10 SSW 1020,6 20 0 0,0
17.03.2019 22:00:00 6,3 4,0 5,5 8,0 7,6 17 9 25 13 S 1020,6 60 0 0,0
17.03.2019 21:00:00 6,7 3,5 5,5 8,0 7,6 16 8 29 15 SSW 1020,2 60 0 0,0
17.03.2019 20:00:00 6,2 3,9 5,0 8,0 7,7 13 7 25 14 SSW 1019,9 60 0 0,0
17.03.2019 19:00:00 5,9 4,2 4,9 8,0 7,6 8 4 19 11 SE 1019,4 20 0 0,0
17.03.2019 18:00:00 6,1 4,4 4,9 7,9 7,6 8 5 49 26 NNW 1018,9 7 0 1,2
17.03.2019 17:00:00 8,2 3,8 6,2 7,9 7,6 15 8 53 28 NE 1017,0 9 0 1,2
17.03.2019 16:00:00 12,3 5,7 11,1 7,8 7,6 28 15 56 30 W 1012,9 17 0 0,0
17.03.2019 15:00:00 17,5 5,1 18,0 7,7 7,6 21 12 73 39 WSW 1011,1 18 0 0,0
17.03.2019 14:00:00 18,6 5,1 19,3 7,6 7,6 23 13 51 28 W 1010,9 17 28 0,0
17.03.2019 13:00:00 18,9 2,7 19,8 7,5 7,6 26 14 59 32 WSW 1011,2 15 46 0,0
17.03.2019 12:00:00 16,9 3,2 19,5 7,5 7,6 12 7 32 18 NNW 1011,8 19 60 0,0
17.03.2019 11:00:00 13,1 3,7 12,2 7,5 7,6 11 6 28 15 NW 1012,2 19 57 0,0
17.03.2019 10:00:00 9,1 3,9 10,3 7,6 7,6 9 5 14 8 N 1012,0 18 25 0,0
17.03.2019 09:00:00 8,6 3,0 7,8 7,6 7,6 5 3 13 7 NNW 1012,2 20 31 0,0
17.03.2019 08:00:00 8,4 1,3 6,5 7,7 7,6 4 2 26 14 S 1012,1 51 10 0,0
17.03.2019 07:00:00 7,6 -0,1 6,4 7,7 7,6 15 8 37 20 SSW 1011,8 60 0 0,0
17.03.2019 06:00:00 8,2 0,2 6,1 7,8 7,6 19 10 36 19 S 1012,0 60 0 0,0
17.03.2019 05:00:00 7,8 0,7 5,1 7,8 7,6 11 6 26 14 SW 1012,7 60 0 0,0
17.03.2019 04:00:00 8,2 1,8 1,7 7,9 7,6 10 6 30 16 S 1013,2 60 0 0,0
17.03.2019 03:00:00 4,8 2,3 0,2 7,9 7,6 9 5 18 10 S 1014,2 50 0 0,0
17.03.2019 02:00:00 4,0 3,6 0,2 8,0 7,6 6 4 10 5 S 1015,2 12 0 0,0
17.03.2019 01:00:00 5,4 4,5 2,1 8,0 7,6 2 1 10 5 SSE 1015,5 17 0 0,0
17.03.2019 00:00:00 6,6 4,9 3,1 8,0 7,6 4 2 8 5 NW 1015,4 19 0 0,0
16.03.2019 23:00:00 7,0 4,5 4,7 8,0 7,6 5 3 22 12 SE 1015,2 19 0 0,0
16.03.2019 22:00:00 9,0 5,4 5,8 8,0 7,6 10 5 18 10 S 1015,4 9 0 0,0
16.03.2019 21:00:00 11,7 6,0 4,9 8,1 7,6 13 7 26 14 SSW 1015,1 60 0 0,0
16.03.2019 20:00:00 8,7 6,5 5,3 8,0 7,6 10 5 13 7 S 1015,6 59 0 0,0
16.03.2019 19:00:00 9,0 7,3 5,0 7,9 7,6 4 2 6 3 SSW 1016,2 19 0 0,0
16.03.2019 18:00:00 12,3 7,6 9,8 7,8 7,6 3 2 9 5 WNW 1016,2 20 17 0,0
16.03.2019 17:00:00 15,4 7,9 20,6 7,8 7,6 8 4 12 6 N 1016,3 19 60 0,0
16.03.2019 16:00:00 15,0 7,5 19,9 7,7 7,6 9 5 16 9 N 1017,0 19 60 0,0
16.03.2019 15:00:00 13,4 8,2 17,6 7,6 7,6 11 6 17 9 N 1018,0 15 60 0,0
16.03.2019 14:00:00 12,2 8,3 14,1 7,5 7,5 11 6 20 11 N 1019,2 14 60 0,0
16.03.2019 13:00:00 10,5 8,3 14,3 7,4 7,5 14 8 19 11 N 1020,5 13 60 0,0
16.03.2019 12:00:00 10,3 8,2 15,4 7,4 7,6 10 5 15 8 N 1021,3 10 60 0,0
16.03.2019 11:00:00 8,7 7,9 9,7 7,4 7,6 7 4 12 7 N 1022,3 8 28 0,0
16.03.2019 10:00:00 7,5 7,1 8,1 7,4 7,6 5 3 9 5 SW 1023,5 8 0 0,0
16.03.2019 09:00:00 6,7 6,6 6,5 7,4 7,6 4 2 10 5 S 1024,0 2,2 0 0,0
16.03.2019 08:00:00 6,0 5,9 6,1 7,4 7,5 5 3 10 6 SSW 1023,9 0,5 0 0,0
16.03.2019 07:00:00 5,9 5,8 4,8 7,5 7,5 3 2 6 3 SW 1024,1 0,6 0 0,0
16.03.2019 06:00:00 5,4 5,3 3,0 7,5 7,6 2 1 9 5 WSW 1024,3 0,1 0 0,0
16.03.2019 05:00:00 5,9 5,8 3,7 7,5 7,6 3 2 9 5 SW 1024,0 0,2 0 0,0
16.03.2019 04:00:00 6,5 6,1 4,3 7,5 7,5 2 1 10 5 NE 1024,2 15 0 0,0
16.03.2019 03:00:00 7,5 6,4 6,0 7,5 7,6 7 4 14 8 S 1024,5 8 0 0,0
16.03.2019 02:00:00 8,5 7,9 7,8 7,5 7,6 4 2 9 5 SW 1025,0 16 0 0,0
16.03.2019 01:00:00 8,9 8,1 8,0 7,5 7,6 7 4 10 5 S 1025,2 12 0 0,0
16.03.2019 00:00:00 9,2 8,6 8,7 7,4 7,5 8 4 12 7 SSE 1025,5 7 0 0,0
15.03.2019 23:00:00 9,7 9,1 9,1 7,4 7,6 11 6 16 8 SSE 1025,6 7 0 0,0
15.03.2019 22:00:00 9,5 9,0 8,8 7,4 7,6 5 3 8 4 SSW 1025,5 6 0 0,8
15.03.2019 21:00:00 10,1 9,3 9,5 7,3 7,5 5 3 11 6 E 1025,0 7 0 0,0
15.03.2019 20:00:00 10,3 9,4 9,8 7,3 7,5 4 2 12 6 ESE 1024,5 14 0 0,0
15.03.2019 19:00:00 10,7 9,5 10,1 7,1 7,5 5 3 9 5 SW 1024,0 15 0 0,0
15.03.2019 18:00:00 11,6 9,7 11,4 7,1 7,6 6 4 14 8 SW 1023,0 14 0 0,0
15.03.2019 17:00:00 12,2 9,9 12,7 7,0 7,5 7 4 14 7 S 1022,4 20 0 0,0
15.03.2019 16:00:00 11,8 9,5 12,2 7,0 7,5 7 4 15 8 S 1022,9 15 2 0,2
15.03.2019 15:00:00 11,1 8,5 12,8 6,9 7,5 7 4 16 9 S 1022,8 13 8 0,0
15.03.2019 14:00:00 10,3 8,7 10,7 6,9 7,6 8 4 19 11 SSW 1023,4 13 0 0,0
15.03.2019 13:00:00 9,7 8,1 9,9 6,9 7,5 10 5 23 12 SSW 1023,7 17 0 0,0
15.03.2019 12:00:00 8,2 7,0 8,2 6,8 7,6 11 6 23 12 SSW 1024,1 19 0 0,0
15.03.2019 11:00:00 7,3 6,6 6,8 6,8 7,5 11 6 27 15 SW 1024,3 15 0 0,0
15.03.2019 10:00:00 6,3 5,4 6,3 6,8 7,5 14 8 29 16 SW 1024,4 8 0 0,0
15.03.2019 09:00:00 6,0 5,0 5,1 6,8 7,5 19 10 34 18 S 1024,3 13 0 0,0
15.03.2019 08:00:00 5,2 4,2 5,0 6,9 7,6 23 12 37 20 SSW 1023,7 6 0 0,0
15.03.2019 07:00:00 5,4 4,4 4,8 6,9 7,5 26 14 44 24 S 1023,0 7 0 0,0
15.03.2019 06:00:00 5,2 4,3 4,7 6,9 7,6 23 12 36 20 S 1022,6 7 0 0,8
15.03.2019 05:00:00 5,1 4,2 4,7 7,0 7,6 18 10 40 21 SSW 1022,2 5 0 0,8
15.03.2019 04:00:00 5,0 4,3 4,4 7,0 7,6 18 10 34 19 SSW 1021,8 2,6 0 2,4
15.03.2019 03:00:00 4,7 4,0 4,3 7,0 7,6 17 9 34 18 SSW 1021,4 3,2 0 1,5
15.03.2019 02:00:00 4,5 3,9 4,2 7,0 7,5 16 8 34 19 SSW 1021,8 3,0 0 1,0
15.03.2019 01:00:00 4,6 3,9 4,1 7,1 7,6 16 9 31 17 SSW 1021,6 3,9 0 1,6
15.03.2019 00:00:00 4,4 3,5 4,0 7,1 7,6 16 9 35 19 SSW 1021,3 3,8 0 1,0
14.03.2019 23:00:00 4,4 3,8 3,9 7,1 7,5 19 10 31 17 SSW 1021,1 3,8 0 2,0
14.03.2019 22:00:00 4,3 3,6 3,9 7,1 7,6 16 8 24 13 S 1021,2 2,1 0 0,6
14.03.2019 21:00:00 4,1 3,2 3,9 7,2 7,6 11 6 22 12 SSW 1021,2 9 0 2,0
14.03.2019 20:00:00 4,3 3,3 3,9 7,2 7,6 12 7 25 14 SSW 1020,8 5 0 1,6
14.03.2019 19:00:00 4,8 3,6 4,4 7,2 7,6 16 9 26 14 SSW 1020,5 8 0 1,9
14.03.2019 18:00:00 5,2 3,7 4,8 7,2 7,6 13 7 26 14 SW 1019,9 6 0 1,4
14.03.2019 17:00:00 5,7 3,7 5,1 7,2 7,6 13 7 51 28 SSW 1019,8 8 0 1,4
14.03.2019 16:00:00 5,9 3,4 5,0 7,1 7,5 29 16 42 23 SSE 1020,2 6 0 1,4
14.03.2019 15:00:00 6,4 3,7 5,5 7,1 7,5 22 12 34 18 S 1021,4 11 0 1,0
14.03.2019 14:00:00 6,7 3,8 5,9 7,1 7,6 25 14 38 20 SSE 1022,2 6 0 0,4
14.03.2019 13:00:00 8,0 3,8 8,5 7,1 7,6 16 8 25 14 S 1023,1 19 0 0,0
14.03.2019 12:00:00 7,5 3,5 6,5 7,0 7,5 9 5 24 13 SSE 1023,9 58 0 0,2
14.03.2019 11:00:00 6,9 3,7 7,4 7,1 7,5 17 9 29 16 S 1024,5 11 0 0,0
14.03.2019 10:00:00 6,4 4,2 6,6 7,1 7,6 14 8 21 11 SSW 1024,7 16 0 0,0
14.03.2019 09:00:00 5,6 4,2 5,2 7,1 7,5 5 3 22 12 SSW 1024,7 9 0 0,2
14.03.2019 08:00:00 5,0 3,5 4,3 7,1 7,5 11 6 19 11 S 1024,6 24 0 0,0
14.03.2019 07:00:00 4,4 3,4 3,4 7,1 7,5 9 5 16 9 SSW 1024,5 16 0 0,0
14.03.2019 06:00:00 4,7 3,5 4,1 7,1 7,5 11 6 17 9 S 1024,5 4,6 0 0,4
14.03.2019 05:00:00 4,5 3,5 3,9 7,2 7,5 6 4 12 6 SSW 1024,6 17 0 0,0
14.03.2019 04:00:00 4,6 3,6 4,0 7,2 7,5 5 3 16 9 SW 1024,4 16 0 0,4
14.03.2019 03:00:00 5,0 3,3 4,5 7,2 7,5 6 3 23 12 S 1024,7 4,1 0 0,4
14.03.2019 02:00:00 4,7 3,5 3,7 7,2 7,5 13 7 23 12 S 1024,1 18 0 0,0
14.03.2019 01:00:00 4,5 3,3 3,7 7,2 7,5 2 1 21 11 W 1024,3 17 0 0,4
14.03.2019 00:00:00 5,0 3,3 4,1 7,3 7,5 11 6 25 13 SSW 1023,5 20 0 0,0
13.03.2019 23:00:00 5,0 3,8 3,6 7,3 7,5 5 3 13 7 WSW 1023,7 9 0 0,0
13.03.2019 22:00:00 6,0 3,2 4,5 7,3 7,5 4 2 19 11 NNE 1023,2 5 0 0,4
13.03.2019 21:00:00 5,0 3,2 3,4 7,3 7,5 7 4 11 6 S 1022,4 18 0 0,0
13.03.2019 20:00:00 4,6 2,9 3,4 7,3 7,5 0 0 9 5 N 1022,1 19 0 0,0
13.03.2019 19:00:00 4,6 2,9 2,4 7,3 7,5 5 3 10 5 SSW 1021,6 20 0 0,0
13.03.2019 18:00:00 5,7 2,3 4,8 7,2 7,5 5 3 11 6 S 1021,4 19 6 0,0
13.03.2019 17:00:00 6,4 3,0 7,1 7,2 7,5 6 3 18 10 NNE 1021,3 18 12 0,0
13.03.2019 16:00:00 6,7 2,8 4,7 7,1 7,5 5 3 24 13 NNW 1021,2 19 3 0,4

tt = Température de l'air
td = dewpoint
tt 5cm = Température de l'air 5cm
tt -20cm = Température de l'air -20cm
tt -100cm = Température de l'air -100cm
ff = Vitesse du vent
fx = gusts
dd = Direction du vent
ppp = reduced air pressure
vv = visibility
sd = Ensoleillement
rr = Quantités de précipitations

stations d'obs. à proximité